AAL932 SEQM-KMIA

Flight info

Callsign AAL932
Flight time N/A
Altitude 36000
Route NEGAL 3A NEGAL UM674 TBG UL780 ULBAS UG437 ALTIB UM779 ZEUSS VIICE2
Aircraft B738/M-VGDW/C

Departure

Time 2026-04-30 12:09
Airport Mariscal Sucre International Airport (SEQM)

Arrival

Time N/A
Airport Miami International Airport (KMIA)
Time Latitude Longitude Altitude Speed Heading
2026-04-30 11:52 -0.12317 -78.35934 7840 ft 0 kts 267°
2026-04-30 12:01 -0.12317 -78.35933 7840 ft 2 kts 267°
2026-04-30 12:01 -0.12315 -78.35917 7832 ft 2 kts 261°
2026-04-30 12:01 -0.12312 -78.35900 7837 ft 2 kts 249°
2026-04-30 12:02 -0.12303 -78.35887 7833 ft 2 kts 207°
2026-04-30 12:02 -0.12290 -78.35883 7831 ft 1 kts 178°
2026-04-30 12:02 -0.12289 -78.35883 7831 ft 0 kts 178°
2026-04-30 12:03 -0.12342 -78.35827 7834 ft 14 kts 111°
2026-04-30 12:03 -0.12354 -78.35724 7840 ft 15 kts 87°
2026-04-30 12:04 -0.12366 -78.35632 7839 ft 12 kts 133°
2026-04-30 12:04 -0.12435 -78.35610 7840 ft 10 kts 176°
2026-04-30 12:04 -0.12507 -78.35606 7845 ft 11 kts 177°
2026-04-30 12:04 -0.12592 -78.35603 7850 ft 14 kts 178°
2026-04-30 12:05 -0.12696 -78.35600 7857 ft 15 kts 178°
2026-04-30 12:05 -0.12804 -78.35597 7864 ft 17 kts 178°
2026-04-30 12:05 -0.12951 -78.35590 7870 ft 24 kts 176°
2026-04-30 12:05 -0.13115 -78.35583 7878 ft 23 kts 178°
2026-04-30 12:06 -0.13271 -78.35576 7883 ft 23 kts 177°
2026-04-30 12:06 -0.13438 -78.35569 7885 ft 26 kts 178°
2026-04-30 12:06 -0.13620 -78.35563 7892 ft 27 kts 178°
2026-04-30 12:06 -0.13799 -78.35555 7900 ft 25 kts 176°
2026-04-30 12:07 -0.13964 -78.35545 7900 ft 23 kts 177°
2026-04-30 12:07 -0.14106 -78.35538 7908 ft 18 kts 177°
2026-04-30 12:07 -0.14217 -78.35528 7921 ft 14 kts 158°
2026-04-30 12:07 -0.14254 -78.35451 7914 ft 13 kts 89°
2026-04-30 12:08 -0.14228 -78.35375 7918 ft 10 kts 34°
2026-04-30 12:08 -0.14200 -78.35370 7919 ft 0 kts 358°
2026-04-30 12:08 -0.14113 -78.35373 7911 ft 42 kts 358°
2026-04-30 12:08 -0.13598 -78.35395 7891 ft 105 kts 357°
2026-04-30 12:09 -0.12678 -78.35432 7860 ft 158 kts 358°
2026-04-30 12:09 -0.11433 -78.35485 7981 ft 189 kts 356°
2026-04-30 12:09 -0.10122 -78.35582 8637 ft 195 kts 357°
2026-04-30 12:09 -0.08712 -78.35663 9100 ft 207 kts 359°
2026-04-30 12:10 -0.07268 -78.35873 9617 ft 218 kts 343°
2026-04-30 12:10 -0.05847 -78.36410 10198 ft 220 kts 339°
2026-04-30 12:10 -0.04466 -78.36962 10836 ft 212 kts 341°
2026-04-30 12:10 -0.03031 -78.37476 10978 ft 227 kts 342°
2026-04-30 12:11 -0.01480 -78.38008 11106 ft 244 kts 342°
2026-04-30 12:11 0.00177 -78.38575 11251 ft 260 kts 343°
2026-04-30 12:11 0.01945 -78.39178 11369 ft 276 kts 342°
2026-04-30 12:11 0.03793 -78.39808 11614 ft 285 kts 342°
2026-04-30 12:12 0.05673 -78.40453 12144 ft 285 kts 343°
2026-04-30 12:12 0.07555 -78.41097 12581 ft 287 kts 343°
2026-04-30 12:12 0.09450 -78.41743 12982 ft 289 kts 343°
2026-04-30 12:12 0.11374 -78.42398 13347 ft 297 kts 343°
2026-04-30 12:13 0.13381 -78.43081 13447 ft 318 kts 343°
2026-04-30 12:13 0.15540 -78.43829 13612 ft 337 kts 341°
2026-04-30 12:13 0.17784 -78.44712 13753 ft 356 kts 339°
2026-04-30 12:13 0.20129 -78.45687 13872 ft 375 kts 339°
2026-04-30 12:14 0.22581 -78.46719 13956 ft 390 kts 339°
2026-04-30 12:14 0.25130 -78.47787 14077 ft 403 kts 339°
2026-04-30 12:14 0.27745 -78.48881 14260 ft 410 kts 339°
2026-04-30 12:14 0.30402 -78.49986 14568 ft 415 kts 339°
2026-04-30 12:15 0.33073 -78.51093 15028 ft 416 kts 339°
2026-04-30 12:15 0.35751 -78.52198 15428 ft 417 kts 339°
2026-04-30 12:15 0.38438 -78.53307 15800 ft 420 kts 339°
2026-04-30 12:15 0.41153 -78.54426 16170 ft 423 kts 340°
2026-04-30 12:16 0.43884 -78.55551 16521 ft 426 kts 339°
2026-04-30 12:16 0.46628 -78.56682 16918 ft 427 kts 339°
2026-04-30 12:16 0.49352 -78.57791 17296 ft 429 kts 342°
2026-04-30 12:16 0.52250 -78.58463 17596 ft 428 kts 354°
2026-04-30 12:17 0.58186 -78.59177 18268 ft 431 kts 355°
2026-04-30 12:17 0.61175 -78.59521 18539 ft 434 kts 355°
2026-04-30 12:17 0.64181 -78.59880 18828 ft 436 kts 355°
2026-04-30 12:18 0.67197 -78.60256 19115 ft 437 kts 355°
2026-04-30 12:18 0.70235 -78.60642 19383 ft 440 kts 355°
2026-04-30 12:18 0.73284 -78.61036 19648 ft 442 kts 354°
2026-04-30 12:18 0.76337 -78.61433 19926 ft 443 kts 354°
2026-04-30 12:19 0.79405 -78.61833 20182 ft 446 kts 354°
2026-04-30 12:19 0.82494 -78.62237 20442 ft 448 kts 354°
2026-04-30 12:19 0.85586 -78.62641 20717 ft 449 kts 354°
2026-04-30 12:19 0.88658 -78.63042 20970 ft 451 kts 354°
2026-04-30 12:20 0.91775 -78.63449 21215 ft 453 kts 354°
2026-04-30 12:20 0.94909 -78.63858 21454 ft 454 kts 354°
2026-04-30 12:20 0.98053 -78.64268 21696 ft 456 kts 354°
2026-04-30 12:20 1.01207 -78.64679 21927 ft 458 kts 354°
2026-04-30 12:21 1.04376 -78.65092 22146 ft 460 kts 354°
2026-04-30 12:21 1.07555 -78.65506 22365 ft 461 kts 354°
2026-04-30 12:21 1.10746 -78.65923 22578 ft 463 kts 354°
2026-04-30 12:21 1.13903 -78.66334 22782 ft 464 kts 354°
2026-04-30 12:22 1.17112 -78.66753 22991 ft 466 kts 354°
2026-04-30 12:22 1.20339 -78.67174 23185 ft 467 kts 354°
2026-04-30 12:22 1.23566 -78.67595 23374 ft 469 kts 354°
2026-04-30 12:22 1.26815 -78.68019 23548 ft 471 kts 354°
2026-04-30 12:23 1.30068 -78.68443 23701 ft 472 kts 354°
2026-04-30 12:23 1.33328 -78.68868 23862 ft 473 kts 354°
2026-04-30 12:23 1.36596 -78.69283 24008 ft 474 kts 354°
2026-04-30 12:23 1.39872 -78.69686 24156 ft 475 kts 354°
2026-04-30 12:24 1.43169 -78.70089 24294 ft 477 kts 354°
2026-04-30 12:24 1.46471 -78.70491 24435 ft 478 kts 354°
2026-04-30 12:24 1.49778 -78.70896 24572 ft 479 kts 354°
2026-04-30 12:24 1.53052 -78.71299 24701 ft 480 kts 353°
2026-04-30 12:25 1.56379 -78.71709 24826 ft 481 kts 353°
2026-04-30 12:25 1.59706 -78.72119 24949 ft 482 kts 353°
2026-04-30 12:25 1.63048 -78.72532 25078 ft 484 kts 353°
2026-04-30 12:25 1.66388 -78.72944 25202 ft 485 kts 353°
2026-04-30 12:26 1.69746 -78.73358 25324 ft 486 kts 353°
2026-04-30 12:26 1.73106 -78.73773 25452 ft 487 kts 353°
2026-04-30 12:26 1.76472 -78.74188 25583 ft 488 kts 353°
2026-04-30 12:26 1.79842 -78.74604 25706 ft 489 kts 353°
2026-04-30 12:27 1.83224 -78.75018 25824 ft 490 kts 353°
2026-04-30 12:27 1.86579 -78.75412 25950 ft 491 kts 353°
2026-04-30 12:27 1.89979 -78.75802 26065 ft 492 kts 353°
2026-04-30 12:27 1.93394 -78.76190 26183 ft 493 kts 353°
2026-04-30 12:28 1.96807 -78.76577 26308 ft 494 kts 353°
2026-04-30 12:28 2.00221 -78.76966 26416 ft 495 kts 353°
2026-04-30 12:28 2.03649 -78.77358 26527 ft 496 kts 353°
2026-04-30 12:28 2.07084 -78.77752 26639 ft 497 kts 353°
2026-04-30 12:29 2.10523 -78.78148 26749 ft 498 kts 353°
2026-04-30 12:29 2.13972 -78.78545 26914 ft 498 kts 353°
2026-04-30 12:29 2.17406 -78.78941 27094 ft 497 kts 353°
2026-04-30 12:29 2.20793 -78.79331 27268 ft 496 kts 353°
2026-04-30 12:30 2.24224 -78.79726 27423 ft 496 kts 352°
2026-04-30 12:30 2.27652 -78.80121 27574 ft 496 kts 352°
2026-04-30 12:30 2.31083 -78.80516 27747 ft 496 kts 352°
2026-04-30 12:30 2.34519 -78.80912 27939 ft 495 kts 352°
2026-04-30 12:31 2.37939 -78.81306 28113 ft 495 kts 352°
2026-04-30 12:31 2.41358 -78.81699 28283 ft 495 kts 352°
2026-04-30 12:31 2.43626 -78.81961 28402 ft 495 kts 352°
2026-04-30 12:31 2.48197 -78.82487 28680 ft 494 kts 352°
2026-04-30 12:32 2.50463 -78.82748 28848 ft 494 kts 352°
2026-04-30 12:32 2.53875 -78.83141 29071 ft 494 kts 352°
2026-04-30 12:32 2.57288 -78.83534 29252 ft 494 kts 352°
2026-04-30 12:32 2.60709 -78.83928 29452 ft 493 kts 352°
2026-04-30 12:33 2.64114 -78.84321 29648 ft 493 kts 352°
2026-04-30 12:33 2.67532 -78.84715 29846 ft 493 kts 352°
2026-04-30 12:33 2.70938 -78.85107 30020 ft 493 kts 352°
2026-04-30 12:33 2.74354 -78.85501 30245 ft 492 kts 352°
2026-04-30 12:34 2.77710 -78.85887 30460 ft 491 kts 352°
2026-04-30 12:34 2.81106 -78.86278 30663 ft 490 kts 352°
2026-04-30 12:34 2.84496 -78.86669 30854 ft 490 kts 352°
2026-04-30 12:34 2.87883 -78.87059 31047 ft 490 kts 352°
2026-04-30 12:35 2.91268 -78.87450 31259 ft 489 kts 351°
2026-04-30 12:35 2.94646 -78.87839 31473 ft 488 kts 351°
2026-04-30 12:35 2.98027 -78.88229 31673 ft 488 kts 351°
2026-04-30 12:35 3.01405 -78.88618 31871 ft 488 kts 351°
2026-04-30 12:36 3.04780 -78.89007 32078 ft 487 kts 351°
2026-04-30 12:36 3.08105 -78.89391 32293 ft 486 kts 351°
2026-04-30 12:36 3.11469 -78.89779 32518 ft 486 kts 351°
2026-04-30 12:36 3.14824 -78.90166 32738 ft 485 kts 351°
2026-04-30 12:37 3.18177 -78.90552 32947 ft 484 kts 351°
2026-04-30 12:37 3.21525 -78.90938 33155 ft 484 kts 351°
2026-04-30 12:37 3.24868 -78.91324 33372 ft 483 kts 351°
2026-04-30 12:37 3.28212 -78.91710 33601 ft 483 kts 351°
2026-04-30 12:38 3.31546 -78.92094 33821 ft 482 kts 351°
2026-04-30 12:38 3.34874 -78.92478 34006 ft 481 kts 351°
2026-04-30 12:38 3.38194 -78.92861 34210 ft 480 kts 351°
2026-04-30 12:38 3.41510 -78.93244 34435 ft 478 kts 351°
2026-04-30 12:39 3.44809 -78.93624 34642 ft 477 kts 351°
2026-04-30 12:39 3.48106 -78.94005 34829 ft 476 kts 350°
2026-04-30 12:39 3.51397 -78.94384 35009 ft 475 kts 350°
2026-04-30 12:39 3.54681 -78.94763 35219 ft 474 kts 350°
2026-04-30 12:40 3.57951 -78.95141 35412 ft 473 kts 350°
2026-04-30 12:40 3.61179 -78.95513 35581 ft 472 kts 350°
2026-04-30 12:40 3.64439 -78.95890 35750 ft 471 kts 350°
2026-04-30 12:40 3.67700 -78.96266 35845 ft 472 kts 350°
2026-04-30 12:41 3.74242 -78.97023 35852 ft 472 kts 350°
2026-04-30 12:41 3.80781 -78.97777 35852 ft 470 kts 350°
2026-04-30 12:42 3.87245 -78.98524 35842 ft 469 kts 349°
2026-04-30 12:42 3.93724 -78.99272 35846 ft 468 kts 349°
2026-04-30 12:43 4.00186 -79.00018 35849 ft 466 kts 349°
2026-04-30 12:43 4.06593 -79.00759 35850 ft 466 kts 349°
2026-04-30 12:44 4.13034 -79.01504 35851 ft 466 kts 349°
2026-04-30 12:44 4.19496 -79.02251 35851 ft 467 kts 349°
2026-04-30 12:45 4.25957 -79.02998 35850 ft 468 kts 349°
2026-04-30 12:45 4.32447 -79.03749 35849 ft 469 kts 349°
2026-04-30 12:46 4.38950 -79.04501 35851 ft 471 kts 349°
2026-04-30 12:46 4.45471 -79.05255 35850 ft 472 kts 349°
2026-04-30 12:47 4.51953 -79.06005 35850 ft 473 kts 349°
2026-04-30 12:47 4.58501 -79.06763 35853 ft 474 kts 349°
2026-04-30 12:48 4.65051 -79.07520 35852 ft 474 kts 349°
2026-04-30 12:48 4.71608 -79.08279 35850 ft 474 kts 349°
2026-04-30 12:49 4.78167 -79.09038 35855 ft 474 kts 349°
2026-04-30 12:49 4.84717 -79.09797 35852 ft 474 kts 349°
2026-04-30 12:50 4.91262 -79.10555 35851 ft 473 kts 349°
2026-04-30 12:50 4.97801 -79.11312 35851 ft 473 kts 349°
2026-04-30 12:51 5.04335 -79.12069 35855 ft 472 kts 349°
2026-04-30 12:51 5.10826 -79.12821 35851 ft 472 kts 349°
2026-04-30 12:52 5.17363 -79.13579 35850 ft 472 kts 349°
2026-04-30 12:52 5.23882 -79.14335 35852 ft 471 kts 349°
2026-04-30 12:53 5.30397 -79.15090 35851 ft 471 kts 349°
2026-04-30 12:53 5.36876 -79.15842 35853 ft 471 kts 349°
2026-04-30 12:54 5.43388 -79.16597 35854 ft 471 kts 349°
2026-04-30 12:54 5.49906 -79.17354 35851 ft 471 kts 349°
2026-04-30 12:55 5.56423 -79.18110 35853 ft 471 kts 349°
2026-04-30 12:55 5.62935 -79.18866 35851 ft 471 kts 349°
2026-04-30 12:56 5.69454 -79.19623 35853 ft 471 kts 349°
2026-04-30 12:56 5.75973 -79.20380 35852 ft 472 kts 349°
2026-04-30 12:57 5.82456 -79.21134 35852 ft 472 kts 349°
2026-04-30 12:57 5.88985 -79.21892 35853 ft 472 kts 349°
2026-04-30 12:58 5.95521 -79.22653 35850 ft 472 kts 349°
2026-04-30 12:58 6.02050 -79.23425 35857 ft 472 kts 349°
2026-04-30 12:59 6.08587 -79.24204 35852 ft 473 kts 349°
2026-04-30 12:59 6.15126 -79.24981 35855 ft 473 kts 349°
2026-04-30 13:00 6.21635 -79.25754 35853 ft 473 kts 349°
2026-04-30 13:00 6.28175 -79.26531 35856 ft 473 kts 349°
2026-04-30 13:01 6.34719 -79.27308 35855 ft 473 kts 349°
2026-04-30 13:01 6.41265 -79.28086 35855 ft 473 kts 349°
2026-04-30 13:02 6.47814 -79.28864 35853 ft 473 kts 349°
2026-04-30 13:02 6.54333 -79.29639 35855 ft 473 kts 349°
2026-04-30 13:03 6.60876 -79.30417 35852 ft 473 kts 349°
2026-04-30 13:03 6.67416 -79.31195 35851 ft 473 kts 349°
2026-04-30 13:04 6.73960 -79.31973 35851 ft 473 kts 349°
2026-04-30 13:04 6.80500 -79.32752 35852 ft 473 kts 349°
2026-04-30 13:05 6.86997 -79.33525 35853 ft 473 kts 349°
2026-04-30 13:06 6.96830 -79.34696 35854 ft 474 kts 349°
2026-04-30 13:06 7.03382 -79.35477 35854 ft 474 kts 349°
2026-04-30 13:07 7.09947 -79.36259 35851 ft 475 kts 349°
2026-04-30 13:07 7.16525 -79.37043 35851 ft 475 kts 349°
2026-04-30 13:08 7.23103 -79.37827 35847 ft 476 kts 349°
2026-04-30 13:08 7.29643 -79.38607 35852 ft 476 kts 349°
2026-04-30 13:09 7.36233 -79.39386 35847 ft 476 kts 349°
2026-04-30 13:09 7.42820 -79.40159 35849 ft 477 kts 349°
2026-04-30 13:10 7.49414 -79.40933 35848 ft 477 kts 349°
2026-04-30 13:10 7.56003 -79.41708 35849 ft 477 kts 349°
2026-04-30 13:11 7.62599 -79.42484 35846 ft 477 kts 349°
2026-04-30 13:11 7.69142 -79.43255 35847 ft 476 kts 349°
2026-04-30 13:12 7.75727 -79.44031 35846 ft 476 kts 348°
2026-04-30 13:12 7.82308 -79.44806 35847 ft 476 kts 348°
2026-04-30 13:13 7.92170 -79.45969 35846 ft 475 kts 348°
2026-04-30 13:14 8.02028 -79.47131 35846 ft 475 kts 348°
2026-04-30 13:14 8.11828 -79.48288 35847 ft 474 kts 348°
2026-04-30 13:15 8.21649 -79.49447 35844 ft 473 kts 348°
2026-04-30 13:16 8.28191 -79.50220 35841 ft 473 kts 348°
2026-04-30 13:16 8.34737 -79.50993 35843 ft 473 kts 348°
2026-04-30 13:17 8.44559 -79.52154 35843 ft 473 kts 348°
2026-04-30 13:18 8.54369 -79.53315 35835 ft 473 kts 349°
2026-04-30 13:18 8.64136 -79.54470 35836 ft 473 kts 349°
2026-04-30 13:19 8.70676 -79.55245 35834 ft 473 kts 349°
2026-04-30 13:19 8.77217 -79.56019 35832 ft 473 kts 349°
2026-04-30 13:20 8.82707 -79.56193 35840 ft 477 kts 357°
2026-04-30 13:20 8.89351 -79.55921 35833 ft 478 kts 358°
2026-04-30 13:21 8.96006 -79.55620 35862 ft 478 kts 358°
2026-04-30 13:22 9.05986 -79.55240 35856 ft 479 kts 358°
2026-04-30 13:22 9.15959 -79.54891 35852 ft 477 kts 358°
2026-04-30 13:23 9.25923 -79.54542 35860 ft 478 kts 358°
2026-04-30 13:24 9.39181 -79.54075 35856 ft 478 kts 358°
2026-04-30 13:25 9.52509 -79.53606 35857 ft 479 kts 358°
2026-04-30 13:26 9.69196 -79.53016 35862 ft 480 kts 358°
2026-04-30 13:28 9.85892 -79.52426 35857 ft 480 kts 358°
2026-04-30 13:28 9.95896 -79.52072 35866 ft 480 kts 359°
2026-04-30 13:29 10.09203 -79.51601 35859 ft 479 kts 359°
2026-04-30 13:31 10.25901 -79.51009 35859 ft 480 kts 359°
2026-04-30 13:32 10.42563 -79.50418 35864 ft 480 kts 359°
2026-04-30 13:33 10.55933 -79.49941 35862 ft 481 kts 359°
2026-04-30 13:34 10.65968 -79.49559 35865 ft 481 kts 359°
2026-04-30 13:35 10.79357 -79.49048 35867 ft 481 kts 359°
2026-04-30 13:36 10.92761 -79.48540 35869 ft 482 kts 359°
2026-04-30 13:36 11.02782 -79.48159 35866 ft 483 kts 359°
2026-04-30 13:37 11.12857 -79.47776 35867 ft 483 kts 359°
2026-04-30 13:38 11.22940 -79.47393 35875 ft 484 kts 359°
2026-04-30 13:39 11.36428 -79.46879 35875 ft 484 kts 359°
2026-04-30 13:40 11.46541 -79.46494 35869 ft 484 kts 359°
2026-04-30 13:40 11.53269 -79.46237 35873 ft 484 kts 359°
2026-04-30 13:41 11.59961 -79.45982 35875 ft 484 kts 359°
2026-04-30 13:41 11.66694 -79.45725 35873 ft 483 kts 359°
2026-04-30 13:42 11.73416 -79.45468 35871 ft 483 kts 359°
2026-04-30 13:42 11.83486 -79.45084 35874 ft 482 kts 358°
2026-04-30 13:43 11.90196 -79.44827 35880 ft 482 kts 358°
2026-04-30 13:43 11.96850 -79.44573 35889 ft 481 kts 358°
2026-04-30 13:44 12.03549 -79.44316 35879 ft 481 kts 358°
2026-04-30 13:44 12.10253 -79.44060 35887 ft 481 kts 358°
2026-04-30 13:45 12.20285 -79.43676 35886 ft 481 kts 358°
2026-04-30 13:46 12.26943 -79.43420 35886 ft 481 kts 358°
2026-04-30 13:46 12.33630 -79.43164 35889 ft 481 kts 358°
2026-04-30 13:47 12.40323 -79.42907 35890 ft 481 kts 358°
2026-04-30 13:47 12.47021 -79.42650 35890 ft 481 kts 358°
2026-04-30 13:48 12.53718 -79.42393 35891 ft 481 kts 358°
2026-04-30 13:48 12.60418 -79.42135 35893 ft 481 kts 358°
2026-04-30 13:49 12.67119 -79.41878 35893 ft 481 kts 358°
2026-04-30 13:49 12.73819 -79.41620 35893 ft 482 kts 358°
2026-04-30 13:50 12.80475 -79.41364 35897 ft 482 kts 358°
2026-04-30 13:50 12.90535 -79.40976 35897 ft 482 kts 358°
2026-04-30 13:51 12.97240 -79.40718 35900 ft 482 kts 358°
2026-04-30 13:51 13.03939 -79.40460 35899 ft 482 kts 358°
2026-04-30 13:52 13.10651 -79.40201 35897 ft 482 kts 358°
2026-04-30 13:52 13.17316 -79.39943 35904 ft 482 kts 358°
2026-04-30 13:53 13.24031 -79.39684 35900 ft 482 kts 358°
2026-04-30 13:53 13.30737 -79.39425 35903 ft 482 kts 358°
2026-04-30 13:54 13.37446 -79.39165 35906 ft 482 kts 358°
2026-04-30 13:54 13.44162 -79.38906 35908 ft 482 kts 358°
2026-04-30 13:55 13.50842 -79.38647 35909 ft 483 kts 358°
2026-04-30 13:55 13.57557 -79.38387 35910 ft 483 kts 358°
2026-04-30 13:56 13.64282 -79.38127 35912 ft 483 kts 358°
2026-04-30 13:56 13.71005 -79.37866 35909 ft 483 kts 358°
2026-04-30 13:57 13.77687 -79.37607 35914 ft 483 kts 358°
2026-04-30 13:57 13.84412 -79.37346 35911 ft 484 kts 358°
2026-04-30 13:58 13.94499 -79.36954 35916 ft 484 kts 358°
2026-04-30 13:59 14.01226 -79.36692 35915 ft 484 kts 358°
2026-04-30 13:59 14.07968 -79.36430 35919 ft 484 kts 358°
2026-04-30 14:00 14.14712 -79.36167 35919 ft 484 kts 357°
2026-04-30 14:00 14.24767 -79.35776 35920 ft 484 kts 357°
2026-04-30 14:01 14.31503 -79.35513 35923 ft 484 kts 357°
2026-04-30 14:01 14.38237 -79.35250 35922 ft 484 kts 357°
2026-04-30 14:02 14.44972 -79.34988 35924 ft 484 kts 357°
2026-04-30 14:02 14.51699 -79.34725 35924 ft 484 kts 357°
2026-04-30 14:03 14.58425 -79.34462 35920 ft 484 kts 357°
2026-04-30 14:03 14.65157 -79.34199 35921 ft 483 kts 357°
2026-04-30 14:04 14.71886 -79.33935 35929 ft 483 kts 357°
2026-04-30 14:04 14.78566 -79.33674 35926 ft 483 kts 357°
2026-04-30 14:05 14.85287 -79.33411 35935 ft 483 kts 357°
2026-04-30 14:05 14.92002 -79.33147 35937 ft 483 kts 357°
2026-04-30 14:06 15.02077 -79.32756 35929 ft 483 kts 357°
2026-04-30 14:07 15.11017 -79.32458 35937 ft 482 kts 356°
2026-04-30 14:08 15.21070 -79.32134 35939 ft 481 kts 356°
2026-04-30 14:08 15.31116 -79.31802 35942 ft 481 kts 356°
2026-04-30 14:09 15.37759 -79.31581 35944 ft 480 kts 356°
2026-04-30 14:10 15.47777 -79.31248 35942 ft 480 kts 356°
2026-04-30 14:10 15.54451 -79.31026 35940 ft 479 kts 356°
2026-04-30 14:11 15.61121 -79.30804 35940 ft 479 kts 356°
2026-04-30 14:11 15.67791 -79.30581 35949 ft 479 kts 356°
2026-04-30 14:12 15.74416 -79.30360 35946 ft 479 kts 356°
2026-04-30 14:12 15.81071 -79.30138 35946 ft 479 kts 356°
2026-04-30 14:13 15.87727 -79.29916 35948 ft 478 kts 356°
2026-04-30 14:13 15.94381 -79.29694 35948 ft 478 kts 356°
2026-04-30 14:14 16.01037 -79.29471 35948 ft 478 kts 356°
2026-04-30 14:14 16.07689 -79.29249 35952 ft 478 kts 356°
2026-04-30 14:15 16.14352 -79.29026 35955 ft 478 kts 356°
2026-04-30 14:15 16.21001 -79.28803 35954 ft 478 kts 356°
2026-04-30 14:16 16.27603 -79.28582 35955 ft 478 kts 356°
2026-04-30 14:16 16.34247 -79.28359 35955 ft 477 kts 356°
2026-04-30 14:17 16.40890 -79.28136 35956 ft 477 kts 356°
2026-04-30 14:17 16.47523 -79.27913 35957 ft 477 kts 357°
2026-04-30 14:18 16.54155 -79.27690 35956 ft 477 kts 357°
2026-04-30 14:18 16.64095 -79.27356 35957 ft 476 kts 357°
2026-04-30 14:19 16.73997 -79.27022 35960 ft 475 kts 357°
2026-04-30 14:20 16.80613 -79.26799 35961 ft 475 kts 357°
2026-04-30 14:20 16.90522 -79.26465 35962 ft 474 kts 357°
2026-04-30 14:21 16.97120 -79.26242 35961 ft 474 kts 357°
2026-04-30 14:22 17.06972 -79.25909 35967 ft 473 kts 357°
2026-04-30 14:22 17.16851 -79.25575 35968 ft 473 kts 358°
2026-04-30 14:23 17.30004 -79.25129 35969 ft 472 kts 358°
2026-04-30 14:24 17.39810 -79.24797 35967 ft 471 kts 358°
2026-04-30 14:25 17.52909 -79.24352 35970 ft 470 kts 358°
2026-04-30 14:26 17.62716 -79.24019 35970 ft 470 kts 358°
2026-04-30 14:27 17.72514 -79.23685 35972 ft 469 kts 358°
2026-04-30 14:27 17.79049 -79.23463 35970 ft 469 kts 359°
2026-04-30 14:28 17.88800 -79.23130 35971 ft 469 kts 359°
2026-04-30 14:28 17.95323 -79.22907 35971 ft 469 kts 358°
2026-04-30 14:29 18.07278 -79.22499 35974 ft 469 kts 358°
2026-04-30 14:31 18.24680 -79.21904 35975 ft 470 kts 358°
2026-04-30 14:31 18.34508 -79.21567 35981 ft 471 kts 358°
2026-04-30 14:32 18.44340 -79.21229 35978 ft 471 kts 358°
2026-04-30 14:33 18.50909 -79.21004 35978 ft 472 kts 358°
2026-04-30 14:33 18.60723 -79.20666 35981 ft 472 kts 358°
2026-04-30 14:34 18.67301 -79.20440 35984 ft 473 kts 358°
2026-04-30 14:34 18.73886 -79.20213 35984 ft 473 kts 358°
2026-04-30 14:35 18.83751 -79.19873 35982 ft 473 kts 358°
2026-04-30 14:36 18.90334 -79.19646 35982 ft 473 kts 358°
2026-04-30 14:36 18.96907 -79.19419 35987 ft 472 kts 358°
2026-04-30 14:37 19.03484 -79.19191 35981 ft 472 kts 358°
2026-04-30 14:37 19.10003 -79.18966 35983 ft 472 kts 358°
2026-04-30 14:38 19.16568 -79.18738 35982 ft 471 kts 358°
2026-04-30 14:38 19.23128 -79.18511 35982 ft 470 kts 358°
2026-04-30 14:39 19.29668 -79.18284 35984 ft 470 kts 358°
2026-04-30 14:39 19.36210 -79.18057 35986 ft 469 kts 358°
2026-04-30 14:40 19.45947 -79.17719 35986 ft 468 kts 358°
2026-04-30 14:40 19.52458 -79.17492 35989 ft 468 kts 358°
2026-04-30 14:41 19.58962 -79.17266 35989 ft 467 kts 358°
2026-04-30 14:41 19.65460 -79.17040 35990 ft 466 kts 358°
2026-04-30 14:42 19.71902 -79.16815 35989 ft 465 kts 358°
2026-04-30 14:42 19.78371 -79.16590 35990 ft 465 kts 358°
2026-04-30 14:43 19.84827 -79.16364 35990 ft 464 kts 358°
2026-04-30 14:43 19.91286 -79.16138 35993 ft 463 kts 358°
2026-04-30 14:44 19.97732 -79.15913 35992 ft 463 kts 358°
2026-04-30 14:44 20.04158 -79.15716 35991 ft 462 kts 357°
2026-04-30 14:45 20.10583 -79.15582 35991 ft 461 kts 356°
2026-04-30 14:45 20.16949 -79.15455 35992 ft 460 kts 357°
2026-04-30 14:46 20.23359 -79.15319 35990 ft 460 kts 357°
2026-04-30 14:46 20.28678 -79.15202 35995 ft 460 kts 357°
2026-04-30 14:47 20.36161 -79.15036 35996 ft 459 kts 357°
2026-04-30 14:47 20.42511 -79.14895 35997 ft 459 kts 357°
2026-04-30 14:48 20.48896 -79.14753 35990 ft 459 kts 357°
2026-04-30 14:48 20.55288 -79.14612 35995 ft 459 kts 357°
2026-04-30 14:49 20.61674 -79.14470 35999 ft 459 kts 357°
2026-04-30 14:49 20.68065 -79.14328 36002 ft 459 kts 357°
2026-04-30 14:50 20.77655 -79.14115 36004 ft 459 kts 357°
2026-04-30 14:51 20.87194 -79.13902 36006 ft 459 kts 357°
2026-04-30 14:52 20.96784 -79.13688 36005 ft 459 kts 357°
2026-04-30 14:52 21.06363 -79.13474 36004 ft 458 kts 357°
2026-04-30 14:53 21.15933 -79.13260 36008 ft 458 kts 357°
2026-04-30 14:54 21.28634 -79.12976 36007 ft 457 kts 357°
2026-04-30 14:55 21.38173 -79.12763 36003 ft 457 kts 357°
2026-04-30 14:56 21.49798 -79.12503 36006 ft 456 kts 357°
2026-04-30 14:57 21.59321 -79.12289 36007 ft 456 kts 358°
2026-04-30 14:58 21.71902 -79.10936 36008 ft 463 kts 15°
2026-04-30 14:58 21.80744 -79.06526 36008 ft 467 kts 22°
2026-04-30 15:00 21.95381 -78.98895 36005 ft 467 kts 22°
2026-04-30 15:01 22.07123 -78.92860 36013 ft 467 kts 22°
2026-04-30 15:01 22.15917 -78.88330 36005 ft 467 kts 22°
2026-04-30 15:02 22.21771 -78.85311 36005 ft 466 kts 23°
2026-04-30 15:03 22.36369 -78.77768 36008 ft 464 kts 23°
2026-04-30 15:04 22.50874 -78.70256 36011 ft 463 kts 23°
2026-04-30 15:06 22.65383 -78.62723 36008 ft 463 kts 24°
2026-04-30 15:07 22.77189 -78.57324 36010 ft 457 kts
2026-04-30 15:07 22.83490 -78.57339 36016 ft 452 kts 349°
2026-04-30 15:08 22.89688 -78.58554 36012 ft 452 kts 348°
2026-04-30 15:09 23.05150 -78.61580 36021 ft 453 kts 349°
2026-04-30 15:10 23.17581 -78.63922 36017 ft 452 kts 349°
2026-04-30 15:11 23.36135 -78.67429 36015 ft 451 kts 349°
2026-04-30 15:13 23.51586 -78.70358 36017 ft 450 kts 349°
2026-04-30 15:14 23.73093 -78.74447 36016 ft 448 kts 349°
2026-04-30 15:17 24.00667 -78.79999 35996 ft 448 kts 336°
2026-04-30 15:19 24.21972 -78.94113 36015 ft 448 kts 328°